Вернуться в каталог

SJ-7

АктивенНаукаSSO
NORAD 28737·PAYLOAD·🇨🇳 China

Запущен Jul 5, 2005 с Jiuquan Satellite Launch Center

Loading…

Ближайшие Пролёты (ближайшие 24 часа)

TLE

СвежийSource: Space-Track

Эпоха: Sep 14, 2026, 13:29 UTC

1 28737U 05024A   26257.56188911  .00006069  00000-0  26298-3 0  9990
2 28737  97.7227 290.1206 0016850  82.6705 277.6445 15.22654694161626

Отслеживайте SJ-7 в реальном времени с AllMySat

Download on the App Store